Location: Lecco
(45.8566°N, 9.3977°E)
Time: 04:27:32
(UTC+02:00)

Transit 4A - Pass Details

Date: 23 August 2020
Orbit: 863 x 982 km, 66.8° (Epoch: 23 September)

Event Time Altitude Azimuth Distance (km) Brightness Sun altitude
Rises 09:27:02 0° 253° (WSW) 3,528 10.5 29.1°
Reaches altitude 10° 09:29:56 10° 266° (W) 2,610 9.8 29.6°
Maximum altitude 09:34:58 26° 322° (NW) 1,742 9.2 30.5°
Drops below altitude 10° 09:40:10 10° 18° (NNE) 2,689 10.4 31.3°
Sets 09:43:13 0° 31° (NNE) 3,655 11.2 31.8°
